     23   04 06.53  +15 30.1    1.527   1.805    24.9/ 79    88.2   34.0   15.6   +56.1  298.2

     24   04 08.22  +15 34.9    1.521   1.809    24.5/ 79    88.8   34.0   15.6   +56.8  299.1

     25   04 09.89  +15 39.6    1.516   1.812    24.1/ 79    89.3   33.9   15.6   +57.4  300.0

     26   04 11.53  +15 44.1    1.510   1.815    23.8/ 79    89.9   33.8   15.7   +58.0  300.9

     27   04 13.14  +15 48.6    1.505   1.819    23.4/ 79    90.4   33.7   15.7   +58.7  301.9

     28   04 14.73  +15 52.9    1.499   1.822    23.0/ 79    91.0   33.6   15.7   +59.3  302.9

     29   04 16.30  +15 57.2    1.493   1.826    22.6/ 79    91.6   33.6   15.7   +59.9  303.9

     30   04 17.84  +16 01.3    1.488   1.830    22.2/ 79    92.2   33.5   15.7   +60.5  305.0

     31   04 19.36  +16 05.4    1.482   1.833    21.8/ 80    92.8   33.4   15.8   +61.2  306.1

Sept. 1   04 20.85  +16 09.3    1.477   1.837    21.4/ 80    93.4   33.3   15.8   +61.8  307.3

                    m1 =  7.0 + 5 log △ + 30.0 log r

NAKANO

         **** Don't distribute anyone except personal use only ****

                (C) Copyright 2008 OAA/ComputingSection

write mail from CFAD0::NAKANO on 2008-08-01 05:24:01(JST).

 



  51P/Harrington-A

Epoch 2008 June 23.0 TT = JDT 2454640.5  

T 2008 June 19.36404 TT                                 Nakano

q   1.6876634            (2000.0)            P               Q

n   0.13821993     Peri.  269.19212     +0.98800311     +0.12253558

a   3.7047218      Node    83.76579     -0.07442812     +0.91109751

e   0.5444561      Incl.    5.42560     -0.13531557     +0.39355604

P   7.13 (+/- 0.01 day)

From 372 observations 1994-2002, mean residual 0".87.

   Nongravitational parameters A1 = +1.38 +/- 0.04, A2 = +1.1316 +/- 0.0443.

   The comet will pass 0.37 AU from Jupiter on 2003 Oct. 23.

NAKANO

         **** Don't distribute anyone except personal use only ****

                (C) Copyright 2003 OAA/ComputingSection

write mail from CFAD0::NAKANO on 2003-10-19 02:58:01(JST).

 





  51P/Harrington-A 

Epoch 2001 June 20.0 TT = JDT 2452080.5  

T 2001 June 5.74568 TT                                  Nakano

q   1.5681332            (2000.0)            P               Q

n   0.14554791     Peri.  233.60181     +0.98407178     +0.11973623

a   3.5793052      Node   119.18063     -0.07118443     +0.94271263

e   0.5618889      Incl.    8.65593     -0.16289722     +0.31137779

P   6.77

From 324 observations 1994-2002, mean residual 0".87.  Nongravitational

   parameters A1 = +1.38 +/- 0.04, A2 = +1.1280 +/- 0.0478.





NAKANO

         **** Don't distribute anyone except personal use only ****

                (C) Copyright 2002 OAA/ComputingSection

write mail from CFAD0::NAKANO on 2002-01-29 00:05:43(JST).

 



  51P/Harrington-D

Epoch 2008 June 23.0 TT = JDT 2454640.5  

T 2008 June 19.16827 TT                                 Nakano

q   1.6879343            (2000.0)            P               Q

n   0.13824615     Peri.  269.15880     +0.98798597     +0.12265863

a   3.7042534      Node    83.79186     -0.07453943     +0.91110546

e   0.5443254      Incl.    5.42648     -0.13537947     +0.39349931

P   7.13 (+/- 0.01 day)

From 304 observations 1994-2002 using Nucleus A observations in 1994-1995

   and 2001 Sept. 23-Oct. 2, mean residual 0".88.

   Nongravitational parameters A1 = +3.17 +/- 0.05, A2 = +0.7066 +/- 0.0538.

   The comet will pass 0.37 AU from Jupiter on 2003 Oct. 23.

Residuals in seconds of arc 

1994/                     941204 410  0.7+  1.5-    011211 213  2.1+  0.1+  

940501 691  0.4-  0.9+    941206 360 (0.7+  3.1-)   011211 170  0.1+  0.1+  

940501 691  1.0-  1.4+    941206 360 (0.8+  3.0-)   011211 170  1.0+  0.8+  

940501 691  0.5+  0.4+    941206 359 (0.3+  4.2-)   011211 170  0.3-  0.7+  

940502 691  1.6-  0.7-    941206 359 (1.3+  3.2-)   011212 235  0.1-  0.9+  

940502 691  1.0-  0.0     941209 691 (0.0   2.5-)   011213 170 (2.3+  0.4+) 

940502 691  0.6-  0.7+    941209 691 (0.9-  3.0-)   011213 170  0.1-  0.1+  

940502 691  1.6-  0.4+    941209 691 (0.4-  2.9-)   011213 170 (2.4-  1.2+) 

940508 360  1.5-  0.9-    941222 360 (0.5-  2.7-)   011214 235  0.7-  1.2+  

940508 360  0.9-  0.8-    941222 360 (0.1+  3.0-)   011214 046  0.3-  0.7-  

940522 360  0.4+  0.1-    941229 410  1.4+  1.5-    011214 046  1.4-  0.3+  

940522 360  0.2+  0.3+    941229 410  1.1-  2.2-    011214 046  1.6-  0.2+  

940605 360  1.2+  0.1+    941229 410 (1.1+  2.4-)   011214 046  0.4+  0.5+  

940605 360  0.6+  0.4-    941231 897  0.4+  0.9-    011214 046  1.0+  0.0   

940613 691  0.1+  0.9+    941231 897 (5.9+  3.9-)   011214 046  0.3-  0.4-  

940613 691  0.5-  0.9+    941231 897  1.6+  1.1-    011215 587  0.6+  0.6-  

940613 691  0.3+  0.8+    941231 897 (3.9+  0.7+)   011215 587  0.4-  0.2-  

940707 360 (2.3+  0.4+)   1995/                     011216 941  1.0-  0.7-  

940707 360  1.8+  0.1+    950102 410 (1.4+  2.3-)   011216 941  0.0   0.3-  

940715 360  2.0+  0.5+    950102 410  1.2+  1.4-    011216 941  1.1-  0.1+  

940715 360  1.7+  0.3+    950102 410  1.1+  1.6-    011216 235 (2.6-  0.3-) 

940728 897  1.5+  0.9-    950103 691 (1.5-  3.5-)   011216 213  1.6-  0.2-  

940728 897  0.2-  0.3-    950103 691 (1.2-  3.4-)   011216 213  1.5+  0.7-  

940728 897  0.9+  0.7-    950128 691 (1.8-  3.1-)   011218 360  0.5-  0.4-  

940803 360  2.0+  0.2-    950128 691 (1.4-  3.1-)   011218 360  0.5-  0.6-  

940803 360 (2.6+  0.2-)   950128 691 (1.6-  3.5-)   011218 235  2.1-  0.4-  

940804 897  1.3+  1.3-    2001/                     011219 213  1.0-  1.0-  

940804 897  0.9+  0.0     010923 349  0.7+  0.4-    011219 213  0.3-  0.0   

940813 381  1.6+  0.0     010923 349  0.9+  0.4-    011219 170  1.0+  0.6-  

940813 381  1.5+  0.1+    010923 402  1.9+  0.8-    011220 170  1.8+  0.1-  

940814 897  0.5+  1.2-    010923 402  1.8+  0.9-    011220 170 (2.7+  0.5-) 

940814 897  0.2+  0.4-    010923 402  1.9+  0.8-    011220 170  1.3+  0.1-  

940815 360  1.2+  0.1-    010924 170  0.4+  1.1-    011220 170  1.6+  0.8+  

940815 360  1.5+  0.0     010924 170  0.7+  1.1-    011220 170  0.4+  0.5+  

940902 801  1.9-  0.5+    010924 170  0.7+  1.1-    011222 213  1.0-  0.0   

940902 801  2.0-  0.4+    010924 349  0.8+  0.6-    011222 213  1.6+  0.1+  

940907 801  1.8-  0.4+    010924 349  0.6+  0.2-    011222 213  1.8-  0.9+  

940907 801  1.5-  0.2+    010924 349  0.9+  0.5-    011222 213  0.4+  0.0   

940908 360  0.4-  0.5+    010924 349  0.8+  0.5-    011223 461  0.2+  0.2-  

940908 360  0.4-  0.5+    010925 903  1.3-  0.8-    011223 461  0.0   0.5-  

940909 410  0.8-  0.3-    010925 903  1.1-  1.5-    011223 461  0.7-  0.3+  

940909 410  1.8-  0.2-    010925 903  1.0-  0.9-    011223 461  0.5-  0.0   

940910 693  1.8-  1.1-    010928 349  1.2+  0.7-    011223 235  0.1-  0.7+  

940910 693  1.9-  1.0-    010928 349  1.4+  0.2-    011224 170 (2.5+  0.0 ) 

940910 693  1.9-  1.0-    010928 349  0.9+  0.3-    011224 170  0.3-  0.1-  

940913 360  0.9-  0.3+    010928 349  1.1+  0.3-    011224 461  0.7-  1.0+  

940913 360  1.0-  0.3+    011002 349  2.1+  0.6-    011225 213 (4.7-  1.1+) 

940925 897  1.0-  0.3-    011002 349  1.3+  0.2-    011225 213  1.0-  1.6-  

940925 897 (2.6-  0.8+)   011002 349  1.2+  0.9-    011225 213 (2.8-  0.2-) 

940925 897  1.2-  0.5+    011002 349  1.4+  0.4-    011225 170  0.7-  0.2-  

940930 897  1.9-  0.5+    011019 170  0.2-  0.4-    011225 170 (3.4+  1.0-) 

940930 897  1.4-  0.9+    011025 170  1.0-  0.9-    011226 349  0.3-  0.2-  

941001 410  0.9-  0.9+    011025 170  0.2-  1.2-    011226 349  0.1-  2.1+  

941001 410  1.1-  0.8+    011025 170  0.2+  0.9-    2002/                   

941002 360  0.1-  0.7+    011206 170  0.2-  0.1-    020101 235  0.1-  1.2+  

941002 360  0.3-  0.7+    011206 170 (4.0+  0.2+)   020102 235  1.4-  1.3-  

941004 801 (3.0-  1.6+)   011206 170  1.2+  0.0     020103 613  1.7+  0.0   

941004 801  1.3-  1.1+    011206 213  1.3-  0.6+    020103 613  0.5-  0.1+  

941004 691  0.0   0.4+    011206 213  1.9-  0.5+    020103 613  1.0+  0.6+  

941004 691  0.2-  0.6+    011206 213  0.3-  0.5+    020104 215  0.1+  0.1+  

941004 691  0.5-  0.4+    011207 170  1.1+  0.1+    020104 215  1.1-  0.6+  

941004 691  0.2-  0.5+    011207 213 (2.3-  0.8-)   020104 215  0.0   0.3+  

941005 046  0.8-  0.9+    011207 213 (5.0-  0.5+)   020104 046  1.0-  0.8+  

941005 046  0.8-  0.9+    011207 213  1.2-  0.1-    020104 046  0.8-  0.1+  

941005 046  0.7-  0.9+    011207 213 (1.3-  2.6+)   020104 046  1.2-  0.2+  

941005 691  0.1+  0.0     011207 941  0.2+  0.2-    020104 046  1.4-  0.0   

941005 691  0.0   0.1+    011207 941  0.7-  0.1+    020104 235  0.7-  0.1+  

941007 557  0.2-  0.6+    011207 941  0.7-  0.3+    020104 613 (3.0+  0.1-) 

941007 046  0.6-  0.4+    011207 941  1.6-  0.6+    020106 235  2.1-  0.4+  

941007 557  0.6-  0.4+    011207 170 (4.7-  2.1-)   020107 235  1.1-  1.1+  

941007 046  0.5-  0.4+    011207 170  1.3-  1.0-    020107 170  1.4+  1.0+  

941007 046  0.6-  0.6+    011208 349  0.1+  0.9-    020108 235  0.7+  0.2+  

941007 557  0.3-  0.3+    011208 213  0.3-  0.5-    020109 587  0.5+  0.4+  

941007 801 (2.5-  0.4+)   011208 213 (2.0-  3.3+)   020109 587  1.1-  0.4+  

941007 801  1.0-  0.8+    011208 611  0.6-  0.0     020110 046  0.2-  0.5+  

941008 557  0.1-  0.5+    011208 611  0.9-  0.1+    020110 046  0.2-  0.1-  

941008 557  0.2-  0.5+    011208 213  2.2+  0.1+    020110 046  0.3-  0.9+  

941009 557  0.2-  0.2+    011208 118  0.8-  0.3+    020110 235  0.0   1.4+  

941009 557  0.2-  0.5+    011208 118  0.4-  0.1-    020111 360  0.2-  0.2-  

941010 557  0.0   0.7+    011208 118  0.0   0.1-    020111 360  0.4-  0.3+  

941010 557  0.0   0.5+    011208 118  0.3-  0.2+    020111 620  1.3+  1.0+  

941014 897  0.7+  0.4+    011208 611  0.7-  0.3-    020111 213  0.4+  0.9-  

941014 897  1.1-  0.7+    011209 170  0.3-  1.0+    020111 213  0.3-  0.3-  

